Main page
METAR-TAF:

METAR-TAF

Airports :

Atar International Airport

Atar, Mauritania

latitude: 20-30-24N, longitude: 013-02-35W, elevation: 231 m

Current weather observation

The report was made 7 hours and 26 minutes ago, at 12:00 UTC
Wind 12 kt from the East
Temperature 23°C
Humidity 16%
Pressure 1020 hPa
Visibility: 7000 m

METAR: GQPA 031200Z 08012KT 7000 NSC 23/M04 Q1020

Time: 19:26 (19:26 UTC)


TAF: missing

Weather observations and forecasts of more than 4000 airports (METAR and TAF reports).

The available stations are represented by yellow and red dots on the map.

Hover mouse over dot to see the name of the station.

Then click to see weather observations and forecasts.

To change the map : click on the green buttons with a black cross to zoom in, on the green button with a dash to zoom out, or on the green arrows for adjacent maps.


METAR-TAF: